Theta_e
295 296 296 296 296 296 296 295 295 296 296 297 298 300 300 300 301 300 300 301 303 304 303 302 303 303 303 303 301 300 301 302 302 301 302 300 299 300 299 299 297 297 297 299 300 299 300 300 301 302 304 305 305 303 302 302 301 301 300 299 298 299
294 295 295 295 295 296 296 295 293 295 296 296 297 298 297 297 298 298 299 299 300 302 300 300 302 302 302 301 300 300 301 302 301 301 298 300 298 299 298 298 296 295 296 296 297 298 297 296 297 297 299 299 301 300 299 299 299 298 298 297 295 297
295 293 292 293 291 290 291 292 295 296 295 296 296 297 298 298 298 297 299 297 299 298 299 300 299 299 299 298 299 299 300 300 299 300 299 294 297 296 295 295 295 295 295 296 296 297 296 296 296 295 295 295 296 296 297 297 296 297 297 296 294 293
293 292 289 287 288 291 290 293 291 292 294 296 296 296 297 298 297 297 298 297 298 298 299 298 296 297 296 297 297 297 298 297 297 296 292 295 295 293 295 295 294 293 294 294 295 295 295 296 297 295 295 295 295 295 296 296 295 295 295 293 294 292
293 292 292 291 291 292 289 289 291 294 293 293 293 294 297 297 297 296 296 297 297 297 297 296 296 295 294 295 296 295 295 294 292 291 294 294 292 291 293 294 293 293 293 294 294 295 295 295 295 294 294 295 296 296 295 295 294 295 295 293 294 293
295 295 295 296 294 291 293 293 292 293 293 294 293 294 296 295 295 294 294 296 296 296 293 295 294 292 293 294 295 295 294 292 292 291 292 293 291 292 291 291 293 293 293 293 293 295 295 294 293 293 293 295 295 296 295 294 293 294 294 294 294 293
297 298 298 295 293 292 292 292 293 293 294 293 294 296 296 295 293 293 295 294 295 293 293 293 292 292 293 294 294 293 293 291 291 290 292 292 292 292 291 290 290 292 292 294 294 294 294 294 294 293 293 293 293 294 295 294 294 294 294 294 294 292
296 297 297 297 294 293 292 292 292 293 293 294 294 295 295 295 291 293 294 294 294 295 293 293 292 293 293 293 293 293 292 291 290 291 290 291 293 292 291 292 290 291 292 292 293 294 294 294 293 293 293 293 293 292 293 293 293 293 293 293 293 292
297 297 297 296 294 291 292 292 293 293 293 293 293 293 294 294 292 293 293 294 293 295 294 294 294 294 294 293 293 292 291 291 290 290 291 290 291 292 291 290 291 290 291 292 292 292 293 293 293 293 293 292 292 292 292 292 291 292 292 292 292 291
295 295 296 296 297 296 295 294 293 294 294 294 294 291 291 293 291 292 292 293 293 294 295 295 295 294 294 293 292 292 291 291 290 290 290 289 290 291 291 291 291 290 290 291 291 291 292 293 293 292 292 292 292 291 291 291 291 291 291 290 290 290
295 295 295 295 295 295 296 296 297 296 295 293 293 290 291 290 290 291 291 292 292 294 296 296 295 293 292 292 291 291 291 291 290 289 289 289 290 290 290 290 290 290 289 289 289 289 290 292 292 292 291 291 291 291 291 291 291 290 290 289 289 289
293 293 293 293 294 294 295 296 297 297 297 297 296 292 291 287 289 290 291 291 292 294 294 294 293 293 292 290 291 292 291 290 289 289 289 289 289 289 289 288 288 289 289 288 288 288 289 290 291 289 291 291 291 290 291 290 290 290 290 289 288 287
292 292 292 293 293 294 295 296 296 296 296 296 296 295 293 288 289 289 290 291 292 293 293 292 293 292 291 291 291 290 290 289 288 288 288 288 288 288 287 287 288 288 288 288 288 288 288 289 289 289 291 292 292 290 289 289 289 289 289 289 288 287
292 293 293 293 293 293 294 295 296 295 295 296 296 296 292 289 288 290 290 291 291 291 292 291 291 290 291 290 290 290 288 287 287 288 288 288 287 287 286 286 287 287 287 287 287 287 288 288 288 290 291 292 292 291 289 289 288 288 288 288 287 287
293 293 293 293 294 294 295 294 293 294 295 295 296 294 293 292 290 290 291 291 291 291 290 290 290 290 290 290 289 289 288 287 288 288 288 288 288 285 286 287 286 286 286 286 286 287 287 287 289 291 291 291 292 292 289 288 287 287 287 287 286 286
292 292 292 292 292 293 293 292 292 293 293 293 293 293 294 293 293 291 291 291 290 290 289 289 289 289 289 289 288 287 288 287 288 288 288 287 286 286 286 286 286 286 285 286 286 287 287 287 288 290 291 290 291 292 290 287 287 287 287 286 285 284
292 292 291 292 291 290 290 291 292 292 292 292 292 293 293 293 292 292 291 290 290 288 288 288 288 288 289 288 287 287 287 288 288 287 287 287 286 286 286 285 285 285 285 285 286 286 287 287 289 290 290 290 291 291 291 286 286 286 286 285 284 284
291 291 291 291 290 290 290 290 290 289 290 290 290 291 291 290 290 291 291 290 289 289 288 287 288 288 287 287 286 287 287 287 287 287 285 285 284 285 284 284 284 284 284 284 285 286 286 286 288 289 290 290 290 291 288 286 285 285 285 284 283 283
290 290 289 288 288 288 289 289 289 288 288 288 290 290 289 289 289 290 290 289 289 288 287 286 287 287 287 286 286 287 287 287 286 285 284 284 283 283 283 284 284 284 284 284 285 285 286 286 287 288 289 290 290 290 287 285 285 284 284 283 282 282
288 288 287 287 287 287 288 287 287 286 286 287 288 288 289 289 289 290 289 289 289 287 286 285 286 287 287 286 286 287 286 285 282 284 283 284 283 282 282 282 282 282 283 284 285 285 285 285 285 287 289 289 290 289 286 285 284 284 283 282 281 281
287 287 286 287 287 289 287 286 285 284 285 286 287 287 287 288 289 289 289 289 288 287 285 285 285 286 286 286 286 285 285 284 284 281 280 281 280 281 279 280 281 279 280 282 285 285 285 284 284 287 288 289 290 288 285 285 284 283 281 280 280 281
285 286 286 286 288 287 286 285 284 284 285 286 286 286 286 287 288 288 287 286 286 285 284 283 284 284 285 285 284 283 283 280 278 278 279 277 279 279 279 279 281 281 281 282 284 284 284 284 284 285 288 289 289 289 285 284 283 282 280 280 279 279
285 286 286 286 287 285 284 284 283 284 284 284 284 285 286 287 286 285 285 285 284 283 283 282 281 283 282 282 282 280 277 278 279 278 278 278 278 277 277 278 278 280 281 282 283 283 283 284 283 284 287 288 288 289 285 283 283 282 280 279 279 279
285 285 286 284 284 283 282 282 282 284 284 283 284 285 285 285 284 284 283 283 282 281 279 278 278 278 279 277 277 276 276 275 277 278 278 278 278 278 278 277 279 280 280 281 281 282 282 283 284 284 286 288 288 289 286 283 282 281 279 279 278 279
286 286 286 287 286 283 281 278 280 282 283 283 284 285 283 283 282 281 281 280 279 277 275 274 276 276 276 276 276 276 275 275 276 276 278 278 278 279 279 279 280 280 279 279 280 280 281 282 283 284 285 287 288 288 286 284 283 283 281 279 278 279
287 286 286 286 286 285 282 280 281 282 282 283 284 283 282 280 280 278 278 277 275 274 274 274 274 275 275 274 274 275 275 275 275 276 278 279 279 279 279 279 279 279 278 278 279 279 280 281 282 284 285 286 288 287 286 285 285 284 281 281 280 280
285 285 285 286 286 286 284 278 280 281 281 283 281 281 281 279 278 277 277 275 274 273 272 273 273 274 274 274 276 276 275 274 274 276 275 278 279 279 279 279 279 279 278 278 278 279 280 281 282 283 285 285 286 286 286 286 285 284 284 281 281 281
284 284 284 285 285 284 284 282 278 280 282 283 281 280 279 277 276 276 275 272 273 272 272 273 273 273 273 274 274 275 276 276 276 276 276 277 278 279 279 278 278 278 278 277 278 279 280 281 282 282 283 285 285 285 286 285 285 284 283 282 282 283
284 284 284 284 285 284 283 281 280 280 280 280 280 278 276 275 275 276 274 272 271 271 272 272 272 273 272 273 273 273 274 275 276 277 278 279 279 279 279 278 278 277 277 278 278 279 280 280 281 282 282 283 284 284 284 284 283 283 283 282 283 284
284 283 283 283 284 283 281 280 279 279 278 277 277 275 274 276 276 276 274 271 271 272 271 272 276 274 272 272 272 274 273 274 276 278 278 279 279 279 278 278 278 277 277 278 279 279 280 280 281 282 283 283 283 283 283 282 282 282 282 282 283 284
282 282 282 282 283 281 279 278 278 277 276 276 275 273 274 276 276 275 272 271 272 272 275 273 273 273 273 273 273 273 275 277 277 278 277 278 279 281 280 279 278 278 279 279 279 279 279 280 280 282 284 283 284 282 282 281 282 282 282 283 284 282
281 281 281 281 281 280 279 278 277 276 275 274 273 272 275 276 275 273 273 272 272 271 274 274 273 273 274 274 273 274 276 282 282 280 279 279 282 282 282 282 279 279 279 279 280 281 280 280 282 285 285 285 284 284 284 283 284 284 283 284 284 281
281 280 280 281 281 280 279 277 276 275 274 273 273 272 274 274 275 275 274 275 274 275 274 273 273 274 274 274 275 276 277 278 281 283 283 282 282 282 282 282 282 282 281 280 279 281 284 284 285 285 285 285 284 284 284 284 284 284 284 284 279 277
280 280 280 280 279 278 278 277 276 274 273 271 272 273 274 275 275 276 276 275 276 277 277 275 275 276 276 276 277 278 278 279 279 280 282 283 282 282 282 282 282 282 282 282 281 281 282 284 285 285 285 284 284 284 284 284 284 285 284 282 281 275
280 280 280 279 278 278 277 276 276 274 271 271 272 273 276 277 278 277 276 276 276 277 278 278 278 278 278 278 278 278 279 279 279 278 278 281 283 283 282 283 283 282 282 282 282 283 283 284 285 285 285 284 284 284 284 284 285 284 283 282 277 274
278 278 278 278 278 277 276 276 276 274 272 270 272 274 277 279 279 280 280 279 278 278 278 278 278 278 278 278 278 278 278 278 279 279 279 278 279 280 282 283 283 282 282 282 282 283 284 284 285 285 284 284 284 284 284 284 283 284 283 280 274 274
275 276 277 277 277 276 275 275 275 272 268 268 270 273 277 280 281 281 279 278 278 279 279 278 278 277 277 277 277 277 277 277 277 278 278 278 277 277 278 278 280 282 282 281 282 283 284 284 285 285 284 284 284 284 285 284 281 280 279 276 271 273
274 274 275 275 275 274 274 274 274 269 267 268 270 273 276 279 280 280 280 279 279 279 279 278 278 278 277 277 277 277 277 277 277 276 276 276 277 277 277 277 278 280 282 282 282 283 284 284 285 284 285 284 285 285 285 280 279 278 277 274 270 270
Wind_Speed
6 6 7 6 6 6 7 6 5 6 6 6 7 10 9 9 8 7 6 7 7 7 8 8 9 9 9 7 7 6 9 11 9 10 10 6 7 7 7 7 7 7 8 8 8 8 9 7 8 7 7 8 9 8 8 7 7 9 10 10 10 11
5 6 6 6 6 6 6 6 5 7 7 7 9 7 6 6 8 7 8 7 7 8 6 8 8 8 8 7 7 8 10 10 9 9 8 9 6 8 8 8 8 8 8 8 8 8 8 8 7 7 7 6 8 7 8 8 9 10 11 10 8 8
6 6 5 6 5 5 4 4 6 7 5 7 7 9 9 10 9 7 9 6 8 8 10 9 7 8 7 7 8 9 11 9 8 9 8 5 8 7 8 8 9 9 9 9 9 9 8 8 8 7 6 6 7 7 7 7 8 10 9 8 8 7
9 6 4 3 4 6 6 5 4 5 6 6 6 6 9 9 9 8 7 6 8 9 10 9 7 7 6 8 9 10 11 9 8 7 5 8 7 7 8 9 8 8 8 8 9 8 8 8 8 8 8 9 8 8 7 7 8 9 9 7 9 8
4 5 6 6 5 6 5 4 5 7 6 6 6 7 12 9 8 6 6 7 8 10 9 7 8 7 8 9 10 11 10 8 6 5 7 8 6 6 7 8 8 8 8 9 8 8 9 9 8 8 9 10 10 10 8 8 9 10 10 10 10 10
9 9 8 8 7 6 7 6 5 6 7 7 6 9 13 8 7 6 7 8 9 8 6 8 8 7 9 10 11 11 10 8 7 6 8 8 6 8 7 6 7 7 8 9 8 9 9 9 8 7 8 10 10 10 10 9 9 9 10 10 10 9
11 11 11 8 7 7 7 7 7 6 8 6 8 10 10 8 6 7 8 7 9 8 8 9 8 9 11 12 9 10 9 8 7 7 9 7 8 8 7 7 6 7 8 9 9 9 9 9 9 9 9 9 8 9 10 9 9 9 10 10 10 10
10 11 10 9 7 6 7 7 7 7 7 8 7 9 8 9 5 7 7 7 9 10 9 11 9 12 13 11 10 11 9 8 8 8 8 8 9 8 8 9 8 8 9 9 9 9 9 8 9 10 10 10 9 9 9 9 9 9 9 9 8 8
12 12 12 10 8 6 6 6 7 7 7 9 8 8 8 8 6 7 7 8 8 9 10 11 12 13 12 13 13 9 8 9 9 9 10 8 9 9 9 8 9 8 8 9 8 8 9 8 8 9 9 9 8 9 9 8 8 8 8 9 9 8
10 11 11 12 12 11 10 7 7 7 8 9 8 6 6 8 7 7 7 8 8 9 12 13 13 10 11 9 8 8 9 9 9 10 8 7 10 10 9 10 9 9 8 9 8 8 8 8 8 8 8 8 8 9 9 8 9 9 8 7 7 7
9 11 11 12 12 13 13 12 11 9 7 6 7 6 8 7 6 7 8 8 9 12 13 12 10 8 8 8 8 9 10 10 9 8 8 8 9 9 8 8 8 8 8 7 7 7 7 8 8 7 8 8 8 8 8 9 9 9 8 7 7 7
8 9 9 10 10 11 11 12 12 12 11 12 10 7 6 3 6 7 8 9 12 12 12 11 9 9 8 8 11 11 9 8 7 7 8 9 8 8 8 7 8 9 9 9 8 7 7 7 6 8 13 11 9 8 8 7 8 8 8 8 8 7
7 7 7 8 9 9 10 10 10 10 12 12 12 10 6 3 6 7 8 11 11 11 10 9 10 8 9 10 9 8 8 8 7 7 8 8 7 8 7 7 9 9 8 9 8 8 8 7 6 11 10 12 13 9 8 8 8 8 8 8 8 8
9 9 9 9 9 9 8 10 11 10 12 12 12 11 7 4 5 7 9 10 10 9 9 9 9 8 10 8 10 9 7 6 7 8 8 8 8 7 5 8 9 8 8 7 7 8 8 7 9 11 11 13 13 12 8 7 7 7 8 8 9 8
8 9 9 9 10 11 12 10 10 12 12 13 13 11 11 9 7 8 9 10 9 10 8 8 8 9 9 10 9 7 6 8 8 9 9 11 9 6 9 10 8 9 7 8 8 8 8 7 9 10 11 14 12 11 10 6 7 7 8 8 8 8
7 7 7 8 10 9 10 9 10 12 11 11 11 11 12 10 11 8 10 10 9 9 8 7 8 9 9 7 7 6 7 8 11 10 9 8 7 9 9 8 9 8 9 9 9 8 7 7 9 10 10 14 14 13 11 7 7 7 8 8 8 8
8 8 9 9 9 9 10 12 10 11 12 11 12 12 11 12 10 11 11 11 10 6 8 7 7 9 8 6 6 7 8 9 8 7 7 7 9 10 10 10 10 10 9 8 8 7 8 7 9 10 12 13 14 14 12 7 6 6 6 7 8 8
10 10 11 10 10 11 9 10 9 10 13 11 11 11 10 10 11 12 12 10 9 8 7 6 8 8 7 6 6 7 9 8 8 9 6 6 6 6 5 6 6 8 8 8 8 7 8 7 10 11 13 14 14 14 9 7 7 7 6 7 7 7
8 9 8 8 8 9 10 9 9 10 11 12 12 11 11 10 11 13 10 9 9 9 7 6 7 8 7 6 7 8 8 8 8 6 5 7 7 7 8 8 8 7 8 7 7 8 7 6 8 12 13 13 16 12 7 7 6 6 6 6 6 6
7 8 6 8 9 8 7 7 8 9 11 12 11 11 12 11 13 12 10 11 10 7 6 6 7 8 7 6 8 9 7 5 4 5 5 8 7 8 8 6 6 5 6 7 7 8 8 6 6 11 12 13 15 12 7 6 6 4 4 3 4 5
6 8 9 9 11 10 7 8 8 8 10 11 11 11 12 13 14 12 12 13 10 8 7 6 6 7 7 7 8 6 6 6 6 3 4 5 4 5 4 4 6 4 4 4 6 7 7 4 4 9 10 12 13 10 6 6 5 5 4 4 3 3
7 7 8 9 11 10 9 9 9 9 10 11 8 10 12 13 12 11 11 11 10 9 7 5 6 6 6 8 6 5 6 4 3 4 5 4 4 5 5 4 5 5 4 4 4 5 5 5 4 6 11 12 13 12 6 5 6 6 6 6 7 6
5 8 8 8 8 7 7 7 8 10 10 9 9 12 12 10 10 11 11 10 9 8 7 5 5 7 6 5 5 4 3 4 6 6 6 6 5 5 5 4 4 4 3 3 4 4 4 5 5 6 12 13 13 11 9 6 7 6 6 6 6 6
5 6 6 4 5 5 5 6 9 10 10 9 11 12 9 9 10 10 9 9 8 7 5 5 4 4 4 2 2 3 2 2 4 6 7 6 6 7 6 5 4 4 3 3 3 3 4 4 6 5 10 12 12 12 12 6 5 7 8 7 6 6
10 10 11 11 8 4 3 3 7 9 9 11 14 10 8 9 8 8 7 7 7 5 4 3 2 2 1 2 2 4 3 3 4 4 5 6 6 6 6 5 5 5 4 3 2 2 3 3 3 7 6 10 12 14 12 12 8 13 9 9 9 8
12 11 9 9 9 8 6 5 9 9 9 14 10 7 8 8 7 5 6 6 5 4 3 2 1 1 1 3 3 3 4 3 3 3 5 5 6 6 6 5 5 5 5 5 3 2 2 2 3 4 7 8 12 14 14 15 15 14 8 8 8 7
13 14 14 12 10 10 7 4 7 12 15 12 6 8 9 8 7 5 5 5 4 4 3 1 1 0 1 2 4 5 4 3 4 4 2 4 4 5 6 5 5 6 5 4 4 3 2 2 3 2 5 9 12 14 15 15 16 15 14 8 6 8
11 12 13 15 10 8 10 7 5 11 15 11 8 9 8 7 7 6 6 4 3 3 2 1 1 0 0 1 1 3 5 7 6 5 5 5 5 5 5 5 5 4 4 4 3 4 3 3 3 3 4 6 9 9 13 14 15 13 12 10 9 12
11 14 14 16 14 9 9 9 8 9 11 11 9 8 7 7 6 7 5 4 3 2 1 2 1 0 0 1 2 2 3 5 5 6 5 5 6 5 5 6 6 5 5 5 5 4 4 4 4 4 4 5 6 6 8 9 9 13 12 9 10 13
10 12 13 14 13 10 9 9 10 10 9 9 8 7 6 7 7 8 7 5 2 1 1 2 3 2 1 1 3 4 3 3 5 6 7 7 8 8 7 7 7 7 7 7 6 6 5 5 5 5 6 6 6 6 6 7 8 8 7 9 9 10
12 12 13 14 11 9 10 10 10 8 9 8 7 5 6 8 6 6 6 4 2 2 1 1 1 2 2 2 2 3 4 6 6 6 4 2 3 5 7 8 6 6 5 6 7 8 6 6 7 6 6 7 8 9 9 8 8 8 8 10 14 10
10 12 14 14 11 9 10 10 10 8 7 7 5 4 5 7 7 6 7 5 4 3 2 2 2 2 2 2 2 1 1 1 3 1 4 3 3 5 4 5 5 6 7 7 6 5 9 9 8 12 16 14 14 13 12 10 11 11 11 18 21 12
11 11 13 14 12 12 12 11 10 8 7 6 5 4 6 5 6 6 6 5 5 4 3 3 3 2 2 2 2 1 2 1 2 5 5 4 5 5 6 6 5 8 9 7 6 3 6 9 15 18 17 17 16 16 16 17 18 21 22 22 14 10
14 13 14 13 12 12 12 12 10 7 7 5 5 4 5 5 5 6 6 5 5 5 4 3 3 3 2 2 2 2 2 3 4 3 5 8 7 8 8 7 9 11 12 9 7 6 6 14 18 18 18 18 18 18 20 21 22 23 23 19 15 10
13 13 13 12 12 13 12 11 11 7 6 5 4 4 5 6 6 7 5 5 4 4 4 3 2 2 2 2 2 2 2 3 4 5 5 4 7 9 9 10 11 12 11 11 10 11 11 12 16 19 19 18 19 20 20 22 23 22 21 16 8 9
15 15 15 14 14 13 11 12 11 7 6 4 4 4 5 7 7 7 6 5 5 5 4 4 3 2 2 1 1 2 2 3 2 1 3 6 6 5 6 9 12 13 13 13 13 13 17 18 18 18 18 18 18 20 21 20 16 20 19 12 9 8
16 16 15 15 14 13 11 12 10 6 5 4 4 5 6 7 7 7 7 8 6 5 5 5 4 4 3 2 2 2 1 2 2 2 1 2 5 6 6 5 6 10 12 10 11 15 19 19 20 19 18 19 19 19 21 19 12 11 9 4 3 6
14 14 14 14 13 12 12 13 8 5 4 4 4 6 7 7 6 6 6 5 7 6 6 5 5 6 6 6 5 4 3 2 2 2 1 0 1 3 5 4 3 3 7 11 9 16 19 20 21 20 20 19 19 20 20 10 8 8 7 6 4 4
Wind_Direction
281 275 269 261 250 247 246 247 231 237 236 234 230 236 232 233 230 232 235 228 234 233 235 234 235 235 237 236 236 226 226 228 224 222 225 219 207 205 201 204 206 205 210 215 222 218 220 221 231 234 235 222 218 212 219 219 214 214 216 214 208 212
267 264 266 269 255 253 249 246 241 236 232 229 234 242 245 245 237 226 234 227 231 241 239 237 234 237 236 232 225 230 233 234 228 228 224 219 205 207 199 202 201 200 205 210 215 220 220 215 223 228 235 234 232 220 215 212 204 211 214 213 207 206
298 284 266 266 278 265 255 231 229 236 232 238 235 235 240 238 236 223 235 217 231 232 237 239 233 239 233 238 228 233 237 234 230 229 226 210 220 198 202 200 199 198 203 204 210 214 215 214 215 216 221 227 233 231 221 210 205 212 218 212 211 207
276 281 294 277 279 279 267 263 258 255 240 242 247 249 250 245 242 226 232 225 232 230 236 234 231 231 228 234 235 236 240 235 229 230 225 225 225 201 208 205 197 196 196 203 209 213 217 219 216 209 207 217 223 226 216 211 206 213 216 205 212 207
313 310 299 297 281 285 290 287 262 255 252 244 237 233 251 236 241 222 221 228 232 237 237 238 234 222 224 229 234 234 236 236 235 219 223 230 227 221 215 206 201 196 195 201 206 207 214 216 215 208 207 217 219 219 215 209 205 209 210 208 212 205
331 329 322 314 308 291 273 259 253 254 253 245 237 238 250 247 234 228 222 227 235 240 244 242 243 229 230 231 234 234 233 223 224 211 224 227 219 221 224 214 204 199 198 202 204 206 209 213 215 214 214 217 216 219 217 211 209 210 211 212 213 206
325 315 311 308 296 284 276 274 264 253 255 246 238 246 253 253 235 224 230 230 239 236 232 244 237 236 235 234 234 236 232 225 222 214 220 217 221 220 214 222 210 206 204 206 204 204 206 208 205 212 218 220 217 218 218 214 212 212 214 213 213 206
309 308 305 307 290 273 279 276 269 267 264 259 249 254 259 254 240 233 232 231 236 242 234 237 231 233 237 237 236 233 228 224 220 218 221 212 219 215 215 210 208 206 209 209 208 203 204 203 207 213 216 214 212 215 217 216 214 216 217 217 215 208
308 307 307 305 302 292 278 280 286 277 266 268 258 246 249 253 239 238 234 237 235 243 242 243 240 235 231 226 225 219 216 218 217 213 219 206 212 212 213 212 211 214 208 212 206 205 200 201 208 216 217 216 213 213 214 214 214 214 216 216 212 206
304 305 306 315 319 323 319 309 288 283 284 283 279 253 243 247 238 240 237 239 240 239 245 241 240 238 239 243 242 229 221 213 211 214 213 198 211 213 210 208 208 213 208 211 207 207 200 200 206 213 215 214 212 211 214 212 211 212 213 215 210 201
305 307 313 317 321 322 321 319 317 310 295 274 270 264 249 239 236 242 239 242 240 241 241 246 245 240 240 236 232 231 228 223 214 206 205 206 214 210 211 208 205 205 212 213 209 207 202 205 207 205 207 209 213 213 214 214 213 210 211 209 206 200
307 307 312 315 315 315 316 317 317 316 315 311 308 294 270 207 232 232 239 237 240 243 246 247 251 241 236 229 229 231 227 220 217 209 206 212 211 209 205 204 206 209 207 205 208 206 205 212 210 204 207 207 208 207 212 212 214 210 208 202 197 195
310 311 314 308 309 308 310 308 307 312 314 311 311 308 300 202 245 235 239 246 244 247 249 249 246 242 239 233 237 233 225 219 208 211 216 215 210 209 204 198 209 213 207 206 203 204 208 210 206 206 201 205 206 204 206 204 208 207 204 199 192 194
323 322 318 315 312 311 309 311 314 315 308 308 307 307 313 270 256 253 253 252 256 252 248 246 248 242 240 234 234 227 218 203 200 208 212 213 212 211 190 207 215 210 208 206 206 208 208 210 206 201 202 203 199 202 199 201 203 202 203 200 195 191
318 316 317 319 319 319 314 314 314 307 305 308 303 314 310 301 278 268 266 263 258 258 251 249 244 243 240 233 231 221 207 203 205 207 204 209 204 181 199 212 205 212 207 204 206 211 208 212 205 201 197 208 201 189 195 199 203 198 204 198 194 186
304 305 301 298 300 302 303 307 301 297 299 297 302 305 303 306 301 286 276 274 265 261 258 250 245 247 244 237 226 212 212 209 216 212 206 198 186 194 203 204 207 206 205 204 205 208 209 211 213 204 199 211 208 197 185 206 200 204 202 198 191 185
311 312 315 315 313 308 312 311 312 311 311 312 310 305 306 304 300 295 284 280 278 270 260 252 246 249 249 234 223 216 218 217 225 218 211 201 197 196 200 199 204 207 203 201 199 203 208 214 205 201 202 205 206 201 192 201 202 200 203 199 193 185
316 312 307 308 314 310 308 301 307 313 306 309 302 301 301 299 297 288 286 286 286 279 269 254 254 251 248 236 227 223 226 221 216 213 203 200 207 211 203 213 204 202 200 199 197 201 213 213 201 198 203 198 202 200 196 199 200 201 201 199 192 181
291 290 294 296 293 297 301 306 314 310 307 308 305 306 302 302 294 289 296 292 283 281 278 260 255 253 243 232 229 231 230 225 221 216 183 198 202 199 202 205 200 198 194 193 196 200 215 216 204 202 205 204 202 200 197 194 197 198 196 196 184 174
285 288 276 282 289 281 291 306 312 311 308 305 306 309 307 306 297 298 299 292 293 293 280 258 247 250 242 228 229 231 235 230 228 213 190 201 196 206 209 199 197 197 193 190 197 200 204 214 202 199 203 203 203 197 192 187 190 192 183 170 158 152
287 293 307 308 311 314 320 317 317 314 307 306 310 311 308 303 300 304 305 302 303 296 282 263 250 245 242 236 234 225 224 212 210 191 177 209 195 207 180 186 185 190 190 197 199 197 199 196 193 197 200 200 199 194 181 182 183 176 162 144 128 129
304 303 299 299 299 309 318 322 320 313 306 304 307 305 297 295 299 300 298 295 294 291 284 265 255 249 241 240 235 219 213 183 152 159 170 183 172 177 176 182 181 180 191 181 183 188 187 179 185 196 197 197 200 193 170 173 176 178 165 157 156 146
243 265 273 281 288 298 308 312 311 303 302 301 305 294 290 295 298 296 294 292 290 289 281 273 252 256 254 239 230 209 179 170 171 160 161 164 158 154 163 164 164 164 170 174 183 177 184 181 184 202 201 202 202 185 158 180 181 166 151 144 139 145
291 284 284 258 253 260 280 298 300 298 299 299 287 282 292 298 294 292 291 288 285 286 286 278 274 260 248 230 145 150 175 183 163 169 162 157 157 158 160 154 151 155 157 163 174 177 187 182 188 189 199 202 200 192 167 159 160 142 135 134 140 145
323 319 314 316 319 301 276 264 277 286 290 286 284 295 299 291 289 289 288 290 292 295 297 298 267 250 177 183 181 161 166 175 158 162 156 152 150 150 151 154 150 145 146 135 144 153 176 179 189 189 186 193 191 184 169 150 142 149 145 148 154 160
315 315 310 311 311 314 315 315 303 295 288 281 289 295 292 290 283 288 289 293 299 309 314 314 310 278 177 162 147 145 150 165 167 158 167 157 151 150 149 153 148 144 151 159 159 150 159 170 170 192 180 180 174 168 164 161 157 156 155 153 153 152
311 313 312 311 315 313 311 302 299 301 296 293 313 299 298 292 291 288 285 292 306 309 309 335 351 325 212 183 161 150 153 151 159 151 177 151 152 154 154 158 158 162 159 154 161 156 149 148 152 164 182 170 166 165 163 161 161 160 152 143 141 141
311 309 308 308 312 313 308 309 296 294 291 302 306 299 294 291 288 282 274 288 298 302 309 308 347 11 42 165 179 173 171 163 168 163 169 158 159 155 155 154 151 148 150 156 148 154 148 143 134 154 156 154 153 153 154 154 154 149 138 130 135 142
312 310 311 307 309 315 303 305 297 277 285 295 300 302 297 288 278 275 273 264 277 294 302 242 258 276 14 103 110 129 153 163 161 162 167 170 160 159 155 156 154 154 159 162 160 148 150 142 146 144 142 141 141 140 141 136 135 128 120 122 133 139
304 301 301 300 303 308 299 294 290 289 289 290 295 296 295 284 274 271 267 257 244 240 246 241 246 227 208 215 174 152 151 172 174 171 178 177 175 167 172 167 168 171 173 169 160 148 143 150 147 154 150 144 132 129 125 126 129 134 139 138 142 142
305 300 298 295 300 302 300 296 291 289 287 286 293 291 284 276 276 273 270 260 234 223 203 207 234 233 216 210 205 213 203 179 182 182 192 229 209 192 179 174 172 164 158 155 162 159 156 156 164 161 143 137 137 141 144 147 147 145 142 144 137 125
295 300 301 299 302 300 296 295 293 288 282 283 281 273 265 272 273 270 266 263 247 234 196 188 210 242 247 233 205 150 37 48 141 163 161 166 139 118 116 156 171 168 162 162 179 178 174 174 161 147 144 142 140 141 138 136 134 136 137 141 138 133
306 301 300 301 309 307 303 296 292 291 286 278 269 248 250 256 265 262 261 260 254 243 211 189 181 219 232 238 220 201 157 108 94 118 123 127 127 136 155 157 145 152 167 166 156 140 139 136 147 149 146 145 140 140 142 144 144 142 143 140 130 130
312 311 305 305 304 300 299 298 294 290 284 284 279 251 243 237 236 250 249 244 252 258 244 213 188 183 194 240 262 244 206 168 144 126 141 144 144 152 160 160 163 170 173 177 157 142 142 155 154 149 147 146 146 146 148 148 147 148 148 147 135 127
306 303 301 300 298 297 295 292 291 290 280 288 295 274 251 245 235 242 245 238 236 244 247 241 217 184 171 198 225 252 246 210 180 163 151 153 164 168 172 174 173 171 172 170 167 154 154 159 157 154 149 147 147 148 148 149 150 151 150 139 134 143
304 302 300 299 295 291 290 289 289 285 273 284 289 289 268 253 246 243 235 227 217 213 214 213 215 188 179 130 338 325 321 310 314 258 152 145 138 145 164 171 169 167 170 172 168 163 160 160 160 158 154 152 150 150 151 150 153 155 158 155 153 155
298 298 297 298 296 294 288 281 282 275 266 277 284 281 277 263 251 249 244 222 204 194 197 183 175 174 160 154 158 173 237 289 316 312 262 181 155 148 148 149 163 173 174 172 170 169 166 163 163 162 160 158 156 155 153 149 149 157 168 143 116 157
290 290 293 295 293 291 290 284 281 264 268 277 280 281 267 261 247 241 236 228 206 195 194 197 196 180 172 172 177 181 190 192 219 228 285 5 84 141 136 117 118 111 172 170 172 173 171 167 166 166 166 165 164 163 159 157 164 160 167 165 150 149